Nellis AFB, NV

1:54 AM PDT on June 29, 2017 (GMT -0700)
Nellis Air Force Base

Weather History for KLSV - September, 2013

Change the Weather History Date:

Saturday, September 7, 2013

  Actual Average Record
Temperature  
Mean Temperature 84 °F -  
Max Temperature 87 °F 95 °F 104 °F (2008)
Min Temperature 80 °F 70 °F 64 °F (2000)
Cooling Degree Days 18    
Growing Degree Days 34 (Base 50)    
Moisture  
Dew Point 60 °F    
Average Humidity 45    
Maximum Humidity 54    
Minimum Humidity 36    
Precipitation  
Precipitation 0.01 in - - ()
Sea Level Pressure  
Sea Level Pressure 29.89 in    
Wind  
Wind Speed 7 mph (East)    
Max Wind Speed 20 mph    
Max Gust Speed 23 mph    
Visibility 10 miles    
Events Rain    
Averages and records for this station are not official NWS values.
T = Trace of Precipitation, MM = Missing Value Source: NWS Daily Summary

Daily Weather History Graph

Daily Weather History Graph

Search for Another Location

Airport or City:

Trip Planner

Search our weather history database for the weather conditions in past years. The results will help you decide how hot, cold, wet, or windy it might be!

Date:

Astronomy

Sep. 07, 2013 Rise Set
Actual Time 6:16 AM PDT 6:58 PM PDT
Civil Twilight 5:50 AM PDT 7:24 PM PDT
Nautical Twilight 5:19 AM PDT 7:55 PM PDT
Astronomical Twilight 4:48 AM PDT 8:26 PM PDT
Moon 8:29 AM PDT (9/7) 8:06 PM PDT (9/7)
Length of Visible Light 13h 34m
Length of Day
12h 42m
Waxing Crescent, 6% of the Moon is Illuminated
Sep 7
Waxing Crescent
Sep 12
First Quarter
Sep 19
Full
Sep 26
Last Quarter
Oct 4
New

Hourly Weather History & Observations

Time (PDT) Temp. Heat Index Dew Point Humidity Pressure Visibility Wind Dir Wind Speed Gust Speed Precip Events Conditions
12:58 AM 85.1 °F 83.9 °F 55.9 °F 37% 29.84 in 10.0 mi East 9.2 mph - N/A   Mostly Cloudy
1:58 AM 86.0 °F 85.2 °F 58.6 °F 39% 29.85 in 10.0 mi SSE 19.6 mph 23.0 mph N/A   Mostly Cloudy
2:58 AM 84.7 °F 84.6 °F 59.9 °F 43% 29.87 in 10.0 mi SE 11.5 mph - N/A   Overcast
3:58 AM 83.3 °F 83.4 °F 60.1 °F 45% 29.87 in 10.0 mi ESE 4.6 mph - N/A   Overcast
4:58 AM 81.3 °F 81.7 °F 59.5 °F 47% 29.86 in 10.0 mi NE 5.8 mph - N/A   Scattered Clouds
5:58 AM 81.3 °F 81.8 °F 59.7 °F 48% 29.86 in 10.0 mi NNE 4.6 mph - N/A   Mostly Cloudy
6:58 AM 80.8 °F 81.4 °F 59.7 °F 49% 29.87 in 10.0 mi ESE 4.6 mph - N/A   Scattered Clouds
7:58 AM 82.9 °F 83.0 °F 59.7 °F 45% 29.89 in 10.0 mi SE 10.4 mph - N/A   Scattered Clouds
8:58 AM 84.6 °F 84.2 °F 58.8 °F 42% 29.92 in 10.0 mi ESE 3.5 mph - N/A   Mostly Cloudy
9:58 AM 87.1 °F 86.3 °F 58.8 °F 38% 29.92 in 10.0 mi ESE 5.8 mph - N/A   Scattered Clouds
10:58 AM 86.0 °F 85.7 °F 59.5 °F 41% 29.93 in 10.0 mi SE 9.2 mph - N/A   Partly Cloudy
11:58 AM 85.1 °F 85.0 °F 60.4 °F 43% 29.94 in 10.0 mi ENE 3.5 mph - N/A   Clear
12:58 PM 86.5 °F 86.1 °F 59.5 °F 40% 29.92 in 10.0 mi NNW 4.6 mph - N/A   Scattered Clouds
1:58 PM 87.3 °F 86.3 °F 58.1 °F 37% 29.90 in 10.0 mi South 3.5 mph - N/A   Partly Cloudy
2:58 PM 87.1 °F 85.9 °F 57.0 °F 36% 29.88 in 10.0 mi SSE 2.3 mph - N/A   Clear
3:06 PM 86.0 °F 84.9 °F 57.2 °F 37% 29.95 in 10.0 mi ESE 1.2 mph - N/A   Light Drizzle
3:21 PM 84.2 °F 84.4 °F 60.8 °F 45% 29.95 in 10.0 mi SE 4.6 mph - N/A Rain Light Rain
3:45 PM 82.4 °F 83.4 °F 62.6 °F 51% 29.94 in 10.0 mi East 3.5 mph - N/A   Scattered Clouds
3:50 PM 82.4 °F 83.4 °F 62.6 °F 51% 29.94 in 10.0 mi East 5.8 mph - N/A Rain Light Rain
3:58 PM 82.9 °F 84.0 °F 63.0 °F 51% 29.87 in 10.0 mi East 3.5 mph - 0.01 in Rain Light Rain
4:00 PM 82.4 °F 83.4 °F 62.6 °F 51% 29.93 in 10.0 mi East 2.3 mph - N/A Rain Light Rain
4:06 PM 82.4 °F 83.9 °F 64.4 °F 54% 29.93 in 10.0 mi East 3.5 mph - N/A   Partly Cloudy
4:58 PM 83.1 °F 83.9 °F 62.2 °F 49% 29.85 in 10.0 mi SE 3.5 mph - 0.00 in   Overcast
5:58 PM 83.3 °F 83.5 °F 60.8 °F 46% 29.85 in 10.0 mi SSW 4.6 mph - N/A   Overcast
6:58 PM 83.8 °F 83.4 °F 58.3 °F 42% 29.85 in 10.0 mi Calm Calm - N/A   Scattered Clouds
7:58 PM 83.1 °F 82.9 °F 58.5 °F 43% 29.86 in 10.0 mi North 3.5 mph - N/A   Overcast
8:58 PM 81.1 °F 81.8 °F 60.1 °F 49% 29.87 in 10.0 mi NE 3.5 mph - N/A   Partly Cloudy
9:58 PM 80.4 °F 81.1 °F 59.4 °F 49% 29.87 in 10.0 mi Calm Calm - N/A   Overcast
10:58 PM 80.1 °F 80.9 °F 59.7 °F 50% 29.86 in 10.0 mi NE 3.5 mph - N/A   Overcast
11:58 PM 80.2 °F 81.1 °F 60.6 °F 51% 29.87 in 10.0 mi NNW 2.3 mph - N/A   Mostly Cloudy